Preview of NWS' New Version of Forecast
This preview is not operational and should not be used for support decisions.

Regional Weather Roundup (RWR)

Issued by National Weather Service (NWS)

                            
000
ASUS45 KABQ 251001
RWRNM 
NEW MEXICO REGIONAL WEATHER ROUNDUP
NATIONAL WEATHER SERVICE ALBUQUERQUE NM
400 AM MDT SUN AUG 25 2019

NOTE: "FAIR" MEANS FEW OR NO CLOUDS BELOW 12,000 FEET AGL WITH NO
       SIGNIFICANT WEATHER OR OBSTRUCTIONS TO VISION.

      THIS PRODUCT IS RELEASED AS TWO VERSIONS.  ONE VERSION NEAR
      THE TOP OF THE HOUR CONTAINING PRELIMINARY DATA FROM ALBUQUERQUE
      AND OTHER STATIONS.  A FINAL VERSION WITH ADDITIONAL DATA IS 
      ISSUED ABOUT 10 MINUTES AFTER THE HOUR.
 
NMZ501-503-504-510>518-251100-
NORTHWEST PLATEAU/NORTHCENTRAL MOUNTAINS
  
CITY           SKY/WX    TMP DP  RH WIND       PRES   REMARKS
FARMINGTON     FAIR      58  25  28 NE9       30.11S                  
LOS ALAMOS       N/A     69  25  19 S5        30.22R                  
SANTA FE       FAIR      59  31  34 N5        30.15R                  
TAOS           FAIR      53  34  48 NE3       30.23S                  
ANGEL FIRE     FAIR      34  31  90 CALM      30.31F                  

$$
NMZ402-403-502-505>509-251100-
WESTCENTRAL MOUNTAINS/SOUTHWEST MOUNTAINS
  
CITY           SKY/WX    TMP DP  RH WIND       PRES   REMARKS
GALLUP         FAIR      54  27  35 NE3       30.23S                  
GRANTS         FAIR      50  30  45 CALM      30.24S                  
SILVER CITY    FAIR      68  56  64 N12       30.16S                  

$$
NMZ407-409-411-412-251100-
SOUTHERN DESERTS
  
CITY           SKY/WX    TMP DP  RH WIND       PRES   REMARKS
DEMING         FAIR      73  61  65 SW10      30.09R                  
LAS CRUCES     FAIR      74  60  60 W9        30.07S                  
ALAMOGORDO     FAIR      75  54  46 S10       30.03S                  
T OR C         FAIR      79  44  28 NW15G21   30.06S                  

$$
NMZ519>523-251100-
CENTRAL VALLEYS/CENTRAL HIGHLANDS
  
CITY           SKY/WX    TMP DP  RH WIND       PRES   REMARKS
ALBUQUERQUE    FAIR      68  32  26 E5        30.09S                  
DOUBLE EAGLE   FAIR      64  32  30 S3        30.12S                  
CLINES CORNERS FAIR      60  28  29 NW13      30.21R                  
BELEN          FAIR      68  31  25 CALM      30.09S                  
SOCORRO        FAIR      68  38  33 S8        30.06S                  

$$
NMZ524>526-539-540-251100-
SOUTHCENTRAL MOUNTAINS
  
CITY           SKY/WX    TMP DP  RH WIND       PRES   REMARKS
RUIDOSO        FAIR      66  43  42 W8        30.22S                  

$$
NMZ527>531-251100-
NORTHEAST HIGHLANDS/NORTHEAST PLAINS
  
CITY           SKY/WX    TMP DP  RH WIND       PRES   REMARKS
LAS VEGAS      FAIR      58  33  39 NE7       30.15S                  
RATON          FAIR      53  44  71 NE8       30.09F                  
CLAYTON        FAIR      61  60  97 N7        29.98F                  

$$
NMZ532>537-251100-
EASTCENTRAL PLAINS
  
CITY           SKY/WX    TMP DP  RH WIND       PRES   REMARKS
SANTA ROSA     FAIR      67  48  50 N3        29.99R                  
TUCUMCARI      FAIR      74  56  53 SW12      29.90R                  
CANNON AFB     NOT AVBL                                               
CLOVIS AIRPORT FAIR      65  62  90 S6        29.97S                  

$$
NMZ028-029-538-251100-
SOUTHEAST PLAINS
  
CITY           SKY/WX    TMP DP  RH WIND       PRES   REMARKS
ROSWELL        FAIR      75  51  43 S5        29.91F                  
ARTESIA        FAIR      73  55  53 S6        29.94S                  
CARLSBAD       FAIR      73  54  51 W3        29.90F                  


$$